Regional Weather Roundup
Issued by NWS

Home | Current Version | Previous Version | Graphics & Text | Print | Product List | Glossary On
Versions: 1 2 3 4 5 6 7 8 9 10 11 12 13 14 15 16 17 18 19 20 21 22 23 24 25 26 27 28 29 30 31 32 33 34 35 36 37 38 39 40 41 42 43 44 45 46 47 48 49 50
371
ASUS45 KSLC 260110
RWRUT

UTAH REGIONAL WEATHER ROUNDUP
NATIONAL WEATHER SERVICE SALT LAKE CITY UT
700 PM MDT MON SEP 25 2017

UTZ001>011-023>025-260200-

NORTHERN UTAH

CITY           SKY/WX    TMP DP  RH WIND       PRES   REMARKS
BRIGHAM CITY   PTCLDY    57  28  33 W3        30.12S
HILL AFB       PTCLDY    54  31  42 W6        30.11S
LOGAN          CLOUDY    56  36  47 N5        30.11F
OGDEN          CLEAR     55  32  41 NW6       30.10S
SALT LAKE CITY   N/A     58  36  43 N9        30.10S
TOOELE VALLEY  CLEAR     52  34  50 N3        30.11F
WENDOVER       PTCLDY    56  30  37 SE5       30.11S
HEBER CITY     PTCLDY    52  32  46 SW6       30.10S
WEST JORDAN    CLEAR     53  37  53 NW14G20   30.12S

$$

UTZ011>015-024>027-260200-

CENTRAL/NORTHEAST UTAH

CITY           SKY/WX    TMP DP  RH WIND       PRES   REMARKS
PROVO AIRPORT  PTCLDY    55  36  48 NW13      30.10S
MOAB/CANYONLAN CLEAR     62  26  25 NW5       29.99S
DELTA          CLEAR     54  32  43 N6        30.08S
PRICE          MOCLDY    55  30  38 NE8       30.07S
RICHFIELD      CLEAR     52  34  50 NE8       30.10R
ROOSEVELT      CLEAR     55  34  44 CALM      30.11S
VERNAL         CLOUDY    54  33  45 CALM      30.09S

$$

UTZ013>016-019>022-027-260200-

SOUTHERN UTAH

CITY           SKY/WX    TMP DP  RH WIND       PRES   REMARKS
BRYCE CANYON   CLEAR     53  23  31 NW10      30.08S
CEDAR CITY     CLEAR     54  32  43 N13       30.05R
MILFORD        CLEAR     55  30  38 N16       30.06S
ST GEORGE      PTCLDY    73  29  19 W5        29.90S
HANKSVILLE     CLEAR     63  27  25 NE8       30.03S
BLANDING         N/A     60  24  25 S5        30.07S

$$

REGIONAL REPORTS     COLORADO/ARIZONA

CITY           SKY/WX    TMP DP  RH WIND       PRES   REMARKS
CRAIG, CO      CLEAR     49  24  37 NW7       30.10R
GRAND JUNCTION CLEAR     60  30  32 W7        30.00S
RIFLE, CO      CLEAR     58  29  33 NW10      30.03R
MONTROSE, CO   CLEAR     56  29  35 NW5       30.06R
CORTEZ, CO     CLOUDY    56  25  30 W6        30.00S
PAGE, AZ       PTCLDY    67  19  16 NE3       29.95S
GRAND CANYON   MOCLDY    59  15  18 NE6       30.03S
KINGMAN, AZ    CLEAR     72  24  16 N12       29.88S
FLAGSTAFF, AZ  PTCLDY    57  11  16 NE7       30.03S

$$

REGIONAL REPORTS    NEVADA/IDAHO/WYOMING

CITY           SKY/WX    TMP DP  RH WIND       PRES   REMARKS
LAS VEGAS, NV  PTCLDY    77  25  14 NE10      29.86S
ELY, NY        CLEAR     53  28  38 N10       30.09F
ELKO, NV       PTCLDY    59  26  28 NW7       30.08S
POCATELLO, ID  CLOUDY    55  31  39 CALM      30.12S
BURLEY, ID       N/A     56  32  40 W3        30.09S
FORT BRIDGER,    N/A     43  31  63 NW6       30.18S
EVANSTON, WY   CLOUDY    44  30  57 N6        30.15S
ROCK SPRINGS,  CLOUDY    43  30  60 W10       30.13S

$$




USA.gov is the U.S. government's official web portal to all federal, state and local government web resources and services.